Change the Weather History Date:

Wednesday, November 2, 2011

  Actual Average Record
Temperature  
Mean Temperature 26 °F 44 °F  
Max Temperature 36 °F 58 °F 78 °F (1988)
Min Temperature 15 °F 30 °F -4 °F (1951)
Degree Days  
Heating Degree Days 39 21  
Month to date heating degree days 60 42  
Since 1 July heating degree days 621 645  
Cooling Degree Days 0 0  
Month to date cooling degree days 0 0  
Year to date cooling degree days 960 830  
Moisture  
Dew Point 25 °F    
Average Humidity 71    
Maximum Humidity 85    
Minimum Humidity 56    
Precipitation  
Precipitation 0.02 in 0.02 in 0.83 in (1956)
Month to date precipitation 0.12 0.04  
Year to date precipitation 27.12 17.47  
Sea Level Pressure  
Sea Level Pressure 30.36 in    
Wind  
Wind Speed 15 mph (North)    
Max Wind Speed 26 mph    
Max Gust Speed 32 mph    
Visibility 5 miles    
Events Snow    
T = Trace of Precipitation, MM = Missing Value Source: NWS Daily Summary

Daily Weather History Graph

Daily Weather History Graph

Search for Another Location

Airport or City:

Trip Planner

Search our weather history database for the weather conditions in past years. The results will help you decide how hot, cold, wet, or windy it might be!

Date:

Astronomy

Nov. 02, 2011 Rise Set
Actual Time 7:23 AM MDT 5:46 PM MDT
Civil Twilight 6:55 AM MDT 6:15 PM MDT
Nautical Twilight 6:22 AM MDT 6:47 PM MDT
Astronomical Twilight 5:50 AM MDT 7:19 PM MDT
Moon 1:44 PM MDT (11/2) No Moon Set
Length of Visible Light 11h 19m
Length of Day
10h 22m
Waxing Crescent, 51% of the Moon is Illuminated
Nov 2
Waxing Crescent
Nov 10
Full
Nov 18
Last Quarter
Nov 24
New
Dec 2
First Quarter

Hourly Weather History & Observations

Time (MDT) Temp. Windchill Dew Point Humidity Pressure Visibility Wind Dir Wind Speed Gust Speed Precip Events Conditions
12:09 AM 32.0 °F 20.8 °F 28.4 °F 87% 30.20 in 2.0 mi North 17.3 mph - 0.00 in Snow Light Snow
12:21 AM 32.0 °F 20.1 °F 28.4 °F 87% 30.18 in 1.5 mi NNE 19.6 mph - 0.00 in Snow Light Snow
12:36 AM 32.0 °F 20.5 °F 28.4 °F 87% 30.20 in 1.5 mi North 18.4 mph - 0.00 in Snow Light Snow
12:53 AM 32.0 °F 20.8 °F 28.9 °F 88% 30.22 in 1.5 mi North 17.3 mph - 0.00 in Snow Light Snow
1:11 AM 32.0 °F 20.8 °F 28.4 °F 87% 30.20 in 1.0 mi North 17.3 mph - 0.01 in Snow Light Snow
1:22 AM 32.0 °F 19.8 °F 28.4 °F 87% 30.20 in 1.2 mi NNE 20.7 mph 26.5 mph 0.01 in Snow Light Snow
1:38 AM 32.0 °F 19.8 °F 28.4 °F 87% 30.22 in 1.0 mi North 20.7 mph 27.6 mph 0.01 in Snow Light Snow
1:53 AM 32.0 °F 19.2 °F 28.9 °F 88% 30.22 in 1.2 mi North 23.0 mph 28.8 mph 0.01 in Snow Light Snow
2:12 AM 32.0 °F 20.1 °F 28.4 °F 87% 30.20 in 2.5 mi North 19.6 mph - 0.00 in Snow Light Snow
2:22 AM 32.0 °F 20.1 °F 28.4 °F 87% 30.21 in 4.0 mi NNE 19.6 mph - 0.00 in Snow Light Snow
2:40 AM 32.0 °F 18.9 °F 28.4 °F 87% 30.20 in 5.0 mi NNE 24.2 mph 28.8 mph 0.01 in   Overcast
2:53 AM 32.0 °F 19.5 °F 28.0 °F 85% 30.21 in 4.0 mi North 21.9 mph 29.9 mph 0.01 in Snow Light Snow
3:53 AM 32.0 °F 20.1 °F 28.9 °F 88% 30.25 in 3.0 mi North 19.6 mph 28.8 mph 0.00 in Snow Light Snow
4:03 AM 32.0 °F 19.8 °F 28.4 °F 87% 30.24 in 2.0 mi North 20.7 mph - 0.00 in Snow Light Snow
4:53 AM 32.0 °F 20.1 °F 28.0 °F 85% 30.30 in 1.2 mi North 19.6 mph 28.8 mph 0.00 in Snow Light Snow
5:24 AM 32.0 °F 20.1 °F 28.4 °F 87% 30.29 in 1.5 mi North 19.6 mph - 0.00 in Snow Light Snow
5:53 AM 32.0 °F 20.8 °F 28.9 °F 88% 30.35 in 1.2 mi North 17.3 mph - 0.00 in Snow Light Snow
6:53 AM 32.0 °F 20.8 °F 28.9 °F 88% 30.37 in 1.8 mi North 17.3 mph - 0.01 in Snow Light Snow
7:00 AM 32.0 °F 20.5 °F 28.4 °F 87% 30.31 in 2.0 mi North 18.4 mph - 0.00 in Snow Light Snow
7:37 AM 33.8 °F 21.6 °F 28.4 °F 81% 30.34 in 1.8 mi North 23.0 mph - 0.00 in Snow Light Snow
7:53 AM 32.0 °F 19.8 °F 28.9 °F 88% 30.42 in 1.8 mi North 20.7 mph - 0.00 in Snow Light Snow
8:13 AM 30.2 °F 17.1 °F 26.6 °F 86% 30.37 in 2.5 mi North 21.9 mph 27.6 mph 0.00 in Snow Light Snow
8:25 AM 30.2 °F 18.5 °F 26.6 °F 86% 30.37 in 4.0 mi NNE 17.3 mph 29.9 mph 0.00 in Snow Light Snow
8:53 AM 32.0 °F 20.1 °F 27.0 °F 82% 30.47 in 7.0 mi North 19.6 mph - 0.00 in   Overcast
9:53 AM 30.9 °F 19.4 °F 24.1 °F 76% 30.50 in 10.0 mi NNE 17.3 mph 26.5 mph 0.00 in   Overcast
12:53 PM 34.0 °F 22.1 °F 24.1 °F 67% 30.51 in 10.0 mi NNW 21.9 mph 26.5 mph N/A   Clear
1:53 PM 36.0 °F 25.6 °F 21.9 °F 57% 30.50 in 10.0 mi NNW 18.4 mph - N/A   Clear
2:53 PM 36.0 °F 27.1 °F 21.9 °F 57% 30.49 in 10.0 mi NNW 13.8 mph - N/A   Clear
3:53 PM 35.1 °F 26.9 °F 21.9 °F 59% 30.49 in 10.0 mi NW 11.5 mph - N/A   Clear
4:53 PM 33.1 °F 24.9 °F 24.1 °F 70% 30.51 in 10.0 mi NW 10.4 mph - N/A   Clear
5:53 PM 26.1 °F 17.6 °F 21.0 °F 81% 30.53 in 10.0 mi West 8.1 mph - N/A   Clear
6:53 PM 21.9 °F 11.7 °F 17.1 °F 82% 30.54 in 10.0 mi West 9.2 mph - N/A   Clear
7:53 PM 19.9 °F 8.6 °F 14.0 °F 78% 30.54 in 10.0 mi West 10.4 mph - N/A   Clear
8:53 PM 21.0 °F - 14.0 °F 74% 30.53 in 10.0 mi North - - N/A   Clear
9:53 PM 19.9 °F 9.3 °F 12.0 °F 71% 30.53 in 10.0 mi WNW 9.2 mph - N/A   Clear
10:53 PM 16.0 °F 2.9 °F 9.0 °F 74% 30.53 in 10.0 mi West 11.5 mph - N/A   Clear
11:53 PM 18.0 °F 6.9 °F 10.9 °F 74% 30.51 in 10.0 mi West 9.2 mph - N/A   Clear